W7KKE-3 Weather Reports


time (UTC)temp
C
wind
direction
speed
KPH
gust
KPH
rain 1hr
cm
rain 24hr
cm
rain mn
cm
humidity
%
barometer
mb
20260901005826 17 308 8.0 14.5 0.00 0.00 0.00 80 1006.5
20260901005325 18 317 9.7 14.5 0.00 0.00 0.00 80 1006.5
20260901004825 18 281 8.0 14.5 0.00 0.00 0.00 80 1006.5
20260901004326 18 295 9.7 14.5 0.00 0.00 0.00 79 1006.5
20260901003825 18 287 9.7 14.5 0.00 0.00 0.00 79 1006.5
20260901003325 18 287 11.3 14.5 0.00 0.00 0.00 79 1006.5
20260901002826 18 291 9.7 17.7 0.00 0.00 0.00 79 1006.5
20260901002325 18 277 11.3 17.7 0.00 0.00 0.00 79 1006.5
20260901001825 18 292 9.7 17.7 0.00 0.00 0.00 78 1006.4
20260901001326 18 301 9.7 17.7 0.00 0.00 0.00 78 1006.5
20260901000825 18 285 12.9 17.7 0.00 0.00 0.00 78 1006.5
20260901000325 18 285 11.3 17.7 0.00 0.00 0.00 78 1006.5
20260831235826 18 289 12.9 16.1 0.00 0.00 0.00 78 1006.5
20260831234825 19 292 9.7 16.1 0.00 0.00 0.00 78 1006.5
20260831233825 18 306 12.9 17.7 0.00 0.00 0.00 79 1006.4
20260831233325 18 287 11.3 17.7 0.00 0.00 0.00 79 1006.5
20260831232826 18 292 12.9 19.3 0.00 0.00 0.00 79 1006.4
20260831232325 18 317 12.9 19.3 0.00 0.00 0.00 78 1006.5
20260831231825 18 301 12.9 19.3 0.00 0.00 0.00 78 1006.5
20260831231326 18 302 14.5 17.7 0.00 0.00 0.00 78 1006.5
20260831230826 18 298 14.5 17.7 0.00 0.00 0.00 78 1006.5
20260831230325 18 288 14.5 17.7 0.00 0.00 0.00 78 1006.5
20260831225826 18 282 14.5 17.7 0.00 0.00 0.00 77 1006.4
20260831225325 19 301 12.9 16.1 0.00 0.00 0.00 77 1006.4
20260831224825 19 284 9.7 16.1 0.00 0.00 0.00 77 1006.3
20260831224326 19 292 11.3 16.1 0.00 0.00 0.00 77 1006.4
20260831223825 20 287 9.7 14.5 0.00 0.00 0.00 76 1006.3
20260831223325 20 298 9.7 14.5 0.00 0.00 0.00 76 1006.3
20260831222826 20 287 11.3 17.7 0.00 0.00 0.00 76 1006.3
20260831222325 20 268 11.3 17.7 0.00 0.00 0.00 76 1006.3
20260831221825 20 288 11.3 17.7 0.00 0.00 0.00 76 1006.3
20260831221326 20 285 11.3 17.7 0.00 0.00 0.00 75 1006.3
20260831220825 20 289 14.5 19.3 0.00 0.00 0.00 75 1006.3
20260831220325 20 291 11.3 19.3 0.00 0.00 0.00 75 1006.2
20260831215826 20 280 11.3 19.3 0.00 0.00 0.00 75 1006.2
20260831215325 20 288 12.9 19.3 0.00 0.00 0.00 75 1006.2
20260831214825 20 275 11.3 19.3 0.00 0.00 0.00 75 1006.2
20260831214326 20 281 12.9 19.3 0.00 0.00 0.00 75 1006.2
20260831213825 20 284 11.3 19.3 0.00 0.00 0.00 75 1006.2
20260831213325 20 288 9.7 16.1 0.00 0.00 0.00 75 1006.2
20260831212826 20 282 11.3 19.3 0.00 0.00 0.00 76 1006.3
20260831212325 20 309 11.3 19.3 0.00 0.00 0.00 75 1006.3
20260831211825 20 273 9.7 19.3 0.00 0.00 0.00 75 1006.4
20260831211326 20 301 8.0 16.1 0.00 0.00 0.00 76 1006.4
20260831210825 20 280 11.3 16.1 0.00 0.00 0.00 75 1006.3
20260831210326 20 296 11.3 14.5 0.00 0.00 0.00 75 1006.4
20260831205826 20 285 9.7 14.5 0.00 0.00 0.00 74 1006.4
20260831205325 20 299 6.4 16.1 0.00 0.00 0.00 75 1006.3
20260831204825 20 291 11.3 16.1 0.00 0.00 0.00 75 1006.3
20260831204326 20 287 9.7 16.1 0.00 0.00 0.00 74 1006.4
20260831203825 20 308 12.9 16.1 0.00 0.00 0.00 73 1006.4
20260831203325 21 281 11.3 16.1 0.00 0.00 0.00 73 1006.4
20260831202826 20 306 11.3 17.7 0.00 0.00 0.00 74 1006.5
20260831202325 20 303 12.9 17.7 0.00 0.00 0.00 74 1006.5
20260831201825 20 291 11.3 17.7 0.00 0.00 0.00 74 1006.6
20260831201326 20 322 11.3 14.5 0.00 0.00 0.00 74 1006.6
20260831200825 20 294 9.7 14.5 0.00 0.00 0.00 75 1006.6
20260831200325 20 317 9.7 11.3 0.00 0.00 0.00 75 1006.6
20260831195826 20 284 8.0 14.5 0.00 0.00 0.00 74 1006.5
20260831195325 20 333 9.7 14.5 0.00 0.00 0.00 75 1006.5
20260831194825 20 343 9.7 14.5 0.00 0.00 0.00 74 1006.6
20260831194326 20 331 9.7 12.9 0.00 0.00 0.00 74 1006.5
20260831193825 20 298 8.0 14.5 0.00 0.00 0.00 75 1006.6
20260831193325 20 309 9.7 14.5 0.00 0.00 0.00 74 1006.6
20260831192826 20 315 9.7 14.5 0.00 0.00 0.00 74 1006.6
20260831192325 20 298 12.9 16.1 0.00 0.00 0.00 75 1006.7
20260831191825 20 313 9.7 16.1 0.00 0.00 0.00 74 1006.6
20260831191326 20 277 9.7 16.1 0.00 0.00 0.00 74 1006.7
20260831190825 20 288 9.7 14.5 0.00 0.00 0.00 74 1006.8
20260831190325 20 298 9.7 14.5 0.00 0.00 0.00 74 1006.8
20260831185826 20 301 6.4 11.3 0.00 0.00 0.00 75 1007.0
20260831185325 20 287 8.0 11.3 0.00 0.00 0.00 75 1007.0
20260831184825 20 282 6.4 11.3 0.00 0.00 0.00 76 1007.0
20260831183825 19 337 4.8 11.3 0.00 0.00 0.00 74 1007.0
20260831183325 19 324 6.4 11.3 0.00 0.00 0.00 76 1006.9
20260831182826 19 288 6.4 11.3 0.00 0.00 0.00 77 1007.0
20260831182325 19 292 4.8 12.9 0.00 0.00 0.00 77 1007.0
20260831181825 19 320 6.4 12.9 0.00 0.00 0.00 77 1007.0
20260831181326 19 284 4.8 12.9 0.00 0.00 0.00 77 1007.1
20260831180825 18 292 9.7 9.7 0.00 0.00 0.00 79 1007.1
20260831180325 18 289 6.4 9.7 0.00 0.00 0.00 79 1007.0
20260831175826 18 291 6.4 11.3 0.00 0.00 0.00 80 1007.0
20260831175325 18 274 3.2 11.3 0.00 0.00 0.00 81 1007.0
20260831174825 18 275 4.8 11.3 0.00 0.00 0.00 81 1007.0
20260831174326 17 282 6.4 9.7 0.00 0.00 0.00 82 1007.0
20260831173825 17 288 4.8 9.7 0.00 0.00 0.00 82 1007.1
20260831173325 17 280 4.8 9.7 0.00 0.00 0.00 83 1007.1
20260831172826 17 284 6.4 9.7 0.00 0.00 0.00 82 1007.1
20260831172325 17 303 3.2 9.7 0.00 0.00 0.00 83 1007.1
20260831171825 17 280 3.2 9.7 0.00 0.00 0.00 84 1007.1
20260831170825 16 320 4.8 8.0 0.00 0.00 0.00 85 1007.1
20260831170325 16 299 3.2 4.8 0.00 0.00 0.00 85 1007.1
20260831165826 16 298 3.2 6.4 0.00 0.00 0.00 86 1007.1
20260831165325 16 312 3.2 6.4 0.00 0.00 0.00 86 1007.1
20260831164825 16 301 4.8 6.4 0.00 0.00 0.00 86 1007.1
20260831163825 16 275 3.2 8.0 0.00 0.00 0.00 87 1007.2
20260831163325 16 296 3.2 8.0 0.00 0.00 0.00 87 1007.2
20260831162826 16 289 4.8 8.0 0.00 0.00 0.00 87 1007.3
20260831162325 16 319 1.6 6.4 0.00 0.00 0.00 87 1007.4
20260831161825 15 317 3.2 6.4 0.00 0.00 0.00 87 1007.4
20260831161326 15 0 4.8 4.8 0.00 0.00 0.00 88 1007.4
20260831160825 15 0 0.0 1.6 0.00 0.00 0.00 88 1007.4
20260831160325 14 285 0.0 1.6 0.00 0.00 0.00 88 1007.4
20260831155826 13 295 0.0 1.6 0.00 0.00 0.00 87 1007.4
20260831155325 13 0 0.0 0.0 0.00 0.00 0.00 87 1007.5
20260831154825 13 0 0.0 0.0 0.00 0.00 0.00 87 1007.5
20260831154326 13 0 0.0 0.0 0.00 0.00 0.00 87 1007.6
20260831153825 13 0 0.0 0.0 0.00 0.00 0.00 87 1007.7
20260831153326 13 0 0.0 0.0 0.00 0.00 0.00 87 1007.6
20260831152826 13 0 0.0 0.0 0.00 0.00 0.00 87 1007.6
20260831152325 13 0 0.0 0.0 0.00 0.00 0.00 87 1007.6
20260831151825 13 0 0.0 0.0 0.00 0.00 0.00 87 1007.7
20260831151326 12 0 0.0 0.0 0.00 0.00 0.00 87 1007.7
20260831150825 12 0 0.0 0.0 0.00 0.00 0.00 87 1007.7
20260831150325 12 0 0.0 0.0 0.00 0.00 0.00 86 1007.7
20260831145826 12 0 0.0 0.0 0.00 0.00 0.00 86 1007.7
20260831145325 12 0 0.0 0.0 0.00 0.00 0.00 86 1007.6
20260831144825 12 0 0.0 0.0 0.00 0.00 0.00 86 1007.6
20260831144326 12 0 0.0 0.0 0.00 0.00 0.00 86 1007.6
20260831143825 12 0 0.0 0.0 0.00 0.00 0.00 86 1007.6
20260831143325 12 0 0.0 4.8 0.00 0.00 0.00 86 1007.5
20260831142826 12 0 0.0 4.8 0.00 0.00 0.00 86 1007.4
20260831142326 12 95 0.0 4.8 0.00 0.00 0.00 86 1007.4
20260831141825 12 96 3.2 3.2 0.00 0.00 0.00 86 1007.4
20260831141326 12 105 1.6 8.0 0.00 0.00 0.00 86 1007.3
20260831140825 12 103 1.6 8.0 0.00 0.00 0.00 86 1007.3
20260831140325 12 106 6.4 8.0 0.00 0.00 0.00 86 1007.3
20260831135826 12 99 6.4 8.0 0.00 0.00 0.00 86 1007.2
20260831135325 12 100 6.4 8.0 0.00 0.00 0.00 86 1007.2
20260831134825 12 103 6.4 6.4 0.00 0.00 0.00 86 1007.2
20260831134326 12 109 4.8 6.4 0.00 0.00 0.00 86 1007.4
20260831133825 12 91 0.0 6.4 0.00 0.00 0.00 85 1007.4
20260831133325 12 89 0.0 6.4 0.00 0.00 0.00 85 1007.4
20260831132826 12 110 4.8 4.8 0.00 0.00 0.00 85 1007.4
20260831132325 12 117 1.6 4.8 0.00 0.00 0.00 85 1007.5
20260831131825 12 99 3.2 6.4 0.00 0.00 0.00 85 1007.5
20260831130825 12 103 1.6 6.4 0.00 0.00 0.00 85 1007.6
20260831130325 12 113 3.2 4.8 0.00 0.00 0.00 85 1007.6
20260831125827 12 92 3.2 4.8 0.00 0.00 0.00 85 1007.6
20260831125325 12 77 3.2 4.8 0.00 0.00 0.00 85 1007.6
20260831124825 12 91 0.0 4.8 0.00 0.00 0.00 85 1007.5
20260831123825 12 105 1.6 3.2 0.00 0.00 0.00 85 1007.5
20260831123326 12 0 0.0 0.0 0.00 0.00 0.00 85 1007.6
20260831122826 12 0 0.0 0.0 0.00 0.00 0.00 85 1007.7
20260831122325 12 0 0.0 4.8 0.00 0.00 0.00 85 1007.7
20260831121825 12 85 0.0 4.8 0.00 0.00 0.00 85 1007.8
20260831121326 12 107 1.6 4.8 0.00 0.00 0.00 85 1007.7
20260831120825 12 84 4.8 4.8 0.00 0.00 0.00 84 1007.8
20260831120325 13 93 4.8 4.8 0.00 0.00 0.00 84 1007.8
20260831115826 13 92 3.2 3.2 0.00 0.00 0.00 84 1007.9
20260831115325 13 103 1.6 8.0 0.00 0.00 0.00 84 1007.9
20260831114825 13 106 0.0 8.0 0.00 0.00 0.00 84 1007.9
20260831113825 13 91 6.4 6.4 0.00 0.00 0.00 84 1007.9
20260831113325 13 103 6.4 6.4 0.00 0.00 0.00 84 1007.9
20260831112826 13 100 3.2 6.4 0.00 0.00 0.00 84 1008.0
20260831112325 13 98 3.2 6.4 0.00 0.00 0.00 84 1008.0
20260831111825 13 106 3.2 4.8 0.00 0.00 0.00 84 1008.1
20260831110825 13 0 0.0 3.2 0.00 0.00 0.00 84 1008.1
20260831110325 13 91 0.0 3.2 0.00 0.00 0.00 84 1008.2
20260831105826 13 0 1.6 1.6 0.00 0.00 0.00 84 1008.2
20260831105325 13 0 0.0 3.2 0.00 0.00 0.00 83 1008.2
20260831104825 13 91 0.0 3.2 0.00 0.00 0.00 83 1008.2
20260831104326 13 102 1.6 3.2 0.00 0.00 0.00 83 1008.1
20260831103825 13 99 1.6 3.2 0.00 0.00 0.00 83 1008.1
20260831103325 13 88 1.6 1.6 0.00 0.00 0.00 83 1008.2
20260831102826 13 75 0.0 3.2 0.00 0.00 0.00 83 1008.2
20260831102326 13 86 1.6 3.2 0.00 0.00 0.00 83 1008.2
20260831101825 13 86 1.6 3.2 0.00 0.00 0.00 83 1008.2
20260831101326 13 0 0.0 0.0 0.00 0.00 0.00 83 1008.3
20260831100825 13 0 0.0 0.0 0.00 0.00 0.00 83 1008.4
20260831100325 13 0 0.0 0.0 0.00 0.00 0.00 83 1008.5
20260831095826 13 0 0.0 0.0 0.00 0.00 0.00 83 1008.5
20260831094825 13 102 3.2 6.4 0.00 0.00 0.00 83 1008.4
20260831094326 13 113 4.8 6.4 0.00 0.00 0.00 83 1008.5
20260831093825 13 106 4.8 6.4 0.00 0.00 0.00 83 1008.6
20260831093326 13 93 3.2 6.4 0.00 0.00 0.00 83 1008.6
20260831092826 13 89 3.2 6.4 0.00 0.00 0.00 82 1008.7
20260831092325 13 100 3.2 6.4 0.00 0.00 0.00 82 1008.7
20260831091825 13 102 4.8 4.8 0.00 0.00 0.00 82 1008.9
20260831091326 13 117 4.8 6.4 0.00 0.00 0.00 82 1008.9
20260831090825 13 106 4.8 6.4 0.00 0.00 0.00 82 1009.0
20260831090325 13 103 3.2 6.4 0.00 0.00 0.00 82 1009.0
20260831085826 13 91 4.8 4.8 0.00 0.00 0.00 82 1009.0
20260831085325 14 92 3.2 3.2 0.00 0.00 0.00 82 1009.1
20260831084825 14 107 3.2 3.2 0.00 0.00 0.00 82 1009.2
20260831084326 14 102 3.2 3.2 0.00 0.00 0.00 82 1009.3
20260831083825 14 0 0.0 0.0 0.00 0.00 0.00 82 1009.3
20260831083325 14 79 0.0 3.2 0.00 0.00 0.00 82 1009.4
20260831082826 14 105 0.0 3.2 0.00 0.00 0.00 81 1009.4
20260831082326 14 91 3.2 3.2 0.00 0.00 0.00 81 1009.3
20260831081825 14 89 3.2 4.8 0.00 0.00 0.00 81 1009.3
20260831081448 14 91 4.8 4.8 0.00 0.00 0.00 81 1009.4
20260831081326 14 91 4.8 4.8 0.00 0.00 0.00 81 1009.4
20260831080825 14 119 3.2 4.8 0.00 0.00 0.00 81 1009.5
20260831080327 14 0 0.0 0.0 0.00 0.00 0.00 81 1009.5
20260831075826 14 0 0.0 3.2 0.00 0.00 0.00 81 1009.7
20260831075326 14 86 0.0 3.2 0.00 0.00 0.00 81 1009.7
20260831074825 14 88 3.2 3.2 0.00 0.00 0.00 81 1009.7
20260831074326 14 107 1.6 6.4 0.00 0.00 0.00 81 1009.7
20260831073325 15 100 3.2 6.4 0.00 0.00 0.00 81 1009.7
20260831072826 15 103 3.2 4.8 0.00 0.00 0.00 81 1009.7
20260831072325 15 99 3.2 6.4 0.00 0.00 0.00 81 1009.8
20260831071825 15 103 3.2 6.4 0.00 0.00 0.00 81 1009.9
20260831071326 15 110 3.2 6.4 0.00 0.00 0.00 81 1009.9
20260831070825 15 105 4.8 6.4 0.00 0.00 0.00 81 1010.0
20260831070325 15 114 3.2 4.8 0.00 0.00 0.00 81 1010.1
20260831065826 14 0 1.6 1.6 0.00 0.00 0.00 80 1010.1
20260831065325 14 0 0.0 0.0 0.00 0.00 0.00 80 1010.2
20260831064825 15 0 0.0 1.6 0.00 0.00 0.00 80 1010.2
20260831064326 15 0 0.0 1.6 0.00 0.00 0.00 80 1010.2
20260831063825 14 33 0.0 1.6 0.00 0.00 0.00 80 1010.3
20260831063325 14 71 0.0 0.0 0.00 0.00 0.00 80 1010.3
20260831062826 14 89 0.0 4.8 0.00 0.00 0.00 80 1010.5
20260831062325 15 100 1.6 4.8 0.00 0.00 0.00 79 1010.4
20260831061825 15 88 1.6 4.8 0.00 0.00 0.00 79 1010.5
20260831061326 15 114 3.2 3.2 0.00 0.00 0.00 79 1010.6
20260831060825 15 0 0.0 0.0 0.00 0.00 0.00 79 1010.5
20260831060325 15 0 0.0 4.8 0.00 0.00 0.00 79 1010.6
20260831055826 15 0 0.0 4.8 0.00 0.00 0.00 79 1010.7
20260831055325 15 95 0.0 4.8 0.00 0.00 0.00 79 1010.8
20260831054825 15 98 3.2 3.2 0.00 0.00 0.00 79 1010.8
20260831054326 15 109 1.6 4.8 0.00 0.00 0.00 78 1010.7
20260831053825 15 82 3.2 4.8 0.00 0.00 0.00 78 1010.8
20260831053325 15 99 3.2 4.8 0.00 0.00 0.00 78 1010.9
20260831052826 15 93 4.8 4.8 0.00 0.00 0.00 78 1010.9
20260831052325 15 114 3.2 4.8 0.00 0.00 0.00 78 1011.0
20260831051825 15 96 3.2 4.8 0.00 0.00 0.00 77 1011.0
20260831051326 15 86 3.2 4.8 0.00 0.00 0.00 77 1011.1
20260831050825 15 102 3.2 6.4 0.00 0.00 0.00 77 1011.2
20260831050325 15 109 3.2 6.4 0.00 0.00 0.00 77 1011.2
20260831045826 15 117 4.8 6.4 0.00 0.00 0.00 77 1011.2
20260831045325 15 96 3.2 4.8 0.00 0.00 0.00 77 1011.3
20260831044825 15 99 3.2 4.8 0.00 0.00 0.00 77 1011.3
20260831044326 16 93 3.2 4.8 0.00 0.00 0.00 76 1011.5
20260831043825 15 84 1.6 3.2 0.00 0.00 0.00 76 1011.5
20260831043325 15 105 1.6 4.8 0.00 0.00 0.00 75 1011.5
20260831042826 16 85 3.2 4.8 0.00 0.00 0.00 75 1011.5
20260831042325 16 107 3.2 4.8 0.00 0.00 0.00 75 1011.5
20260831041825 16 98 3.2 4.8 0.00 0.00 0.00 75 1011.5
20260831041326 16 100 3.2 4.8 0.00 0.00 0.00 75 1011.5
20260831040825 16 98 1.6 4.8 0.00 0.00 0.00 74 1011.5
20260831040325 16 100 3.2 4.8 0.00 0.00 0.00 74 1011.5
20260831035826 16 75 1.6 3.2 0.00 0.00 0.00 74 1011.6
20260831035325 16 82 0.0 8.0 0.00 0.00 0.00 74 1011.6
20260831034826 16 112 1.6 8.0 0.00 0.00 0.00 74 1011.6
20260831034326 16 36 3.2 8.0 0.00 0.00 0.00 74 1011.6
20260831033825 17 102 3.2 3.2 0.00 0.00 0.00 73 1011.6
20260831033325 17 100 0.0 3.2 0.00 0.00 0.00 73 1011.6
20260831032826 17 291 0.0 14.5 0.00 0.00 0.00 73 1011.6
20260831032401 17 344 1.6 14.5 0.00 0.00 0.00 73 1011.6
20260831032325 17 344 1.6 14.5 0.00 0.00 0.00 73 1011.6
20260831031825 17 322 6.4 14.5 0.00 0.00 0.00 73 1011.6
20260831031326 17 331 4.8 8.0 0.00 0.00 0.00 72 1011.6
20260831030825 17 292 1.6 11.3 0.00 0.00 0.00 72 1011.7
20260831030325 17 334 4.8 11.3 0.00 0.00 0.00 72 1011.6
20260831025826 17 338 1.6 11.3 0.00 0.00 0.00 71 1011.7
20260831025325 17 22 8.0 9.7 0.00 0.00 0.00 71 1011.7
20260831024825 17 319 4.8 16.1 0.00 0.00 0.00 71 1011.7
20260831024326 18 337 6.4 16.1 0.00 0.00 0.00 71 1011.8
20260831023825 18 350 8.0 16.1 0.00 0.00 0.00 70 1011.7
20260831023325 18 322 11.3 20.9 0.00 0.00 0.00 70 1011.8
20260831022826 18 347 11.3 20.9 0.00 0.00 0.00 70 1011.8
20260831022325 18 317 11.3 20.9 0.00 0.00 0.00 70 1011.9
20260831021825 18 322 9.7 19.3 0.00 0.00 0.00 69 1011.9
20260831020825 18 338 11.3 19.3 0.00 0.00 0.00 69 1012.0
20260831020325 18 341 11.3 16.1 0.00 0.00 0.00 69 1012.1
20260831015826 18 324 8.0 17.7 0.00 0.00 0.00 68 1012.1
20260831015325 18 336 9.7 17.7 0.00 0.00 0.00 68 1012.1
20260831014825 18 317 11.3 17.7 0.00 0.00 0.00 68 1012.1
20260831014326 18 336 9.7 25.7 0.00 0.00 0.00 67 1012.1
20260831013825 18 329 16.1 25.7 0.00 0.00 0.00 67 1012.2
20260831013325 18 331 14.5 25.7 0.00 0.00 0.00 66 1012.4
20260831012826 19 337 14.5 24.1 0.00 0.00 0.00 66 1012.4
20260831012325 19 345 14.5 32.2 0.00 0.00 0.00 66 1012.4
20260831011825 19 7 12.9 32.2 0.00 0.00 0.00 67 1012.5
20260831011327 19 347 14.5 32.2 0.00 0.00 0.00 66 1012.6
20260831010825 19 331 11.3 25.7 0.00 0.00 0.00 67 1012.6
20260831010325 19 317 14.5 22.5 0.00 0.00 0.00 67 1012.7